Content
SEND FEEDBACK

Daily
Averages
Monthly
Summary
Albania

SHKODER, ALBANIA


Home > Europe > Albania
Elevation: 140 feet     Latitude: 42 06N     Longitude: 019 32E

WEATHER
 
SELECT A DAY
Number of Records: 245,792;   Date Range: 12/2/96 - 9/20/14
 
SHARE

PRINT THIS DATA

[ ← Previous Day ]
WEATHER ALMANAC - JANUARY 19, 2013
[ Next Day → ]
[ °C ]   °F
Weather ElementAverageHighLow
Temperature41.2 °F44.6 °F (11:30 am)33.8 °F (7:00 am)
Dewpoint36.9 °F41 °F (12:30 am)32 °F (6:30 am)
Humidity85.4 %100 % (12:30 am)66 % (12:00 pm)
Barometer29.68 in29.80 in (6:30 pm)29.47 in (12:30 am)
Wind Speed3.4 mph8.1 mph (7:00 am)
Weather ElementAverage
Visibility5.4 mi
Wind DirectionSSE (152.3 °)

Weather ElementTotal
Precipitation---
Heating Degree Days25.8 (Base 65)
Averaged from 47 records on January 19, 2013
WEATHER CONDITIONS BREAKOUT
WIND DIRECTION BREAKOUT
WEATHER BY HOUR - JANUARY 19, 2013
[ °C ]   °F
Local TimeTemperatureDewpointHumidityBarometerVisibilityWind DirectionWind SpeedGust SpeedPrecipitationEventsConditions
12:30 AM41.0 °F41.0 °F100 %29.47 in5.0 miVariable2.3 mphMostly Cloudy
1:00 AM41.0 °F41.0 °F100 %29.50 in3.7 miNE (50°)3.5 mphMostly Cloudy
1:30 AM41.0 °F41.0 °F100 %29.50 in3.7 miNNW (340°)3.5 mphMostly Cloudy
2:00 AM41.0 °F41.0 °F100 %29.50 in5.0 miNNW (340°)3.5 mphMostly Cloudy
2:30 AM41.0 °F41.0 °F100 %29.53 in5.0 miNNW (340°)3.5 mphMostly Cloudy
3:00 AM41.0 °F39.2 °F93 %29.53 in5.0 miNNE (30°)3.5 mphMostly Cloudy
3:30 AM41.0 °F35.6 °F81 %29.56 in5.0 miNNE (20°)3.5 mphMostly Cloudy
4:00 AM39.2 °F35.6 °F87 %29.56 in6.2 miNorth (350°)3.5 mphMostly Cloudy
4:30 AM39.2 °F35.6 °F87 %29.56 in6.2 miNNE (20°)4.6 mphScattered Clouds
5:00 AM37.4 °F35.6 °F93 %29.56 in6.2 miVariable2.3 mphScattered Clouds
5:30 AM35.6 °F33.8 °F93 %29.59 in6.2 miNNW (330°)3.5 mphScattered Clouds
6:00 AM35.6 °F35.6 °F100 %29.59 in6.2 miNorth (360°)3.5 mphScattered Clouds
6:30 AM35.6 °F32.0 °F87 %29.62 in6.2 miVariable2.3 mphScattered Clouds
7:00 AM33.8 °F32.0 °F93 %29.62 in6.2 miNNE (20°)8.1 mphPartly Cloudy
7:30 AM35.6 °F32.0 °F87 %29.65 in6.2 miNorth (10°)4.6 mphPartly Cloudy
8:00 AM35.6 °F32.0 °F87 %29.65 in6.2 miNNW (340°)6.9 mphScattered Clouds
8:30 AM37.4 °F32.0 °F81 %29.68 in6.2 miNorth (350°)4.6 mphMostly Cloudy
9:00 AM37.4 °F33.8 °F87 %29.68 in6.2 miNorth (360°)3.5 mphMostly Cloudy
9:30 AM39.2 °F33.8 °F81 %29.68 in6.2 miNorth (350°)8.1 mphScattered Clouds
10:00 AM41.0 °F33.8 °F76 %29.68 in6.2 miNorth (350°)5.8 mphMostly Cloudy
10:30 AM42.8 °F33.8 °F70 %29.68 in6.2 miWNW (300°)6.9 mphMostly Cloudy
11:00 AM42.8 °F35.6 °F76 %29.68 in6.2 miWNW (300°)3.5 mphMostly Cloudy
11:30 AM44.6 °F35.6 °F71 %29.68 in6.2 miVariable2.3 mphMostly Cloudy
12:00 PM44.6 °F33.8 °F66 %29.68 in6.2 miVariable2.3 mphMostly Cloudy
12:30 PM44.6 °F33.8 °F66 %29.71 in6.2 miVariable2.3 mphMostly Cloudy
1:00 PM44.6 °F35.6 °F71 %29.71 in6.2 miEast (100°)3.5 mphMostly Cloudy
1:30 PM44.6 °F35.6 °F71 %29.71 in6.2 miVariable1.2 mphMostly Cloudy
2:00 PM44.6 °F35.6 °F71 %29.71 in6.2 miVariable2.3 mphMostly Cloudy
2:30 PM44.6 °F35.6 °F71 %29.74 in6.2 miVariable2.3 mphMostly Cloudy
3:00 PM44.6 °F37.4 °F76 %29.74 in6.2 miVariable1.2 mphMostly Cloudy
3:30 PM44.6 °F37.4 °F76 %29.74 in6.2 miSSW (210°)3.5 mphMostly Cloudy
4:00 PM44.6 °F37.4 °F76 %29.74 in6.2 miWest (270°)3.5 mphMostly Cloudy
4:30 PM44.6 °F37.4 °F76 %29.77 in6.2 miVariable2.3 mphMostly Cloudy
5:00 PM42.8 °F39.2 °F87 %29.77 in5.0 miVariable1.2 mphOvercast
5:30 PM42.8 °F39.2 °F87 %29.77 in5.0 miSouth (170°)2.3 mphOvercast
6:00 PM42.8 °F39.2 °F87 %29.77 in5.0 miVariable1.2 mphOvercast
6:30 PM42.8 °F39.2 °F87 %29.80 in5.0 miENE (70°)1.2 mphOvercast
7:00 PM42.8 °F39.2 °F87 %29.80 in5.0 miVariable1.2 mphOvercast
7:30 PM42.8 °F39.2 °F87 %29.80 in5.0 miESE (110°)2.3 mphOvercast
8:00 PM42.8 °F39.2 °F87 %29.80 in5.0 miNW (320°)2.3 mphMostly Cloudy
8:30 PM42.8 °F39.2 °F87 %29.80 in4.3 miNNW (340°)4.6 mphMostly Cloudy
9:00 PM41.0 °F39.2 °F93 %29.80 in4.3 miNorth (10°)4.6 mphMostly Cloudy
9:30 PM42.8 °F39.2 °F87 %29.80 in3.7 miNorth (360°)3.5 mphRainLight Rain
10:00 PM42.8 °F39.2 °F87 %29.80 in3.7 miVariable2.3 mphRainLight Rain
10:30 PM41.0 °F41.0 °F100 %29.80 in3.7 miEast (80°)3.5 mphRainLight Rain
11:00 PM41.0 °F41.0 °F100 %29.80 in3.7 miWest (280°)2.3 mphRainLight Rain
11:30 PM41.0 °F41.0 °F100 %29.80 in3.7 miWest (280°)3.5 mphRainLight Rain
Hourly data recorded from LYPG, located miles away from Shkoder, Albania







STORIES FROM OUR PARTNERS